Data supplied by UK-AIR on 8/9/2010
All Data GMT hour ending  NB:  Upto 16/12/2009 PM10 were measured with a Standard TEOM, from 01/01/2008 PM10 were measured with a VCM TEOM
Status: R =Ratified P=Provisional,P*=As supplied
,,Scunthorpe Town,,,,,,,,,,,,,,,,,,,,,,,
Date,time,"PM10 particulate matter (Hourly measured)",status,unit,"Nitric oxide",status,unit,"Nitrogen dioxide",status,unit,"Nitrogen oxides as nitrogen dioxide",status,unit,"Non-volatile PM10 (Hourly measured)",status,unit,"Sulphur dioxide",status,unit,"Volatile PM10 (Hourly measured)",status,unit
 
01-01-2009,01:00,,,,,,,,,,,,,,,,,,,,,
01-01-2009,02:00,,,,5,R,ugm-3,29,R,ugm-3,36,R,ugm-3,,,,5,R,ugm-3,,,
01-01-2009,03:00,,,,1,R,ugm-3,15,R,ugm-3,17,R,ugm-3,,,,0,R,ugm-3,,,
01-01-2009,04:00,,,,4,R,ugm-3,15,R,ugm-3,21,R,ugm-3,,,,0,R,ugm-3,,,
01-01-2009,05:00,,,,4,R,ugm-3,19,R,ugm-3,25,R,ugm-3,,,,0,R,ugm-3,,,
01-01-2009,06:00,,,,1,R,ugm-3,19,R,ugm-3,21,R,ugm-3,,,,0,R,ugm-3,,,
01-01-2009,07:00,,,,5,R,ugm-3,17,R,ugm-3,25,R,ugm-3,,,,0,R,ugm-3,,,
01-01-2009,08:00,,,,4,R,ugm-3,17,R,ugm-3,23,R,ugm-3,,,,0,R,ugm-3,,,
01-01-2009,09:00,,,,5,R,ugm-3,19,R,ugm-3,27,R,ugm-3,,,,0,R,ugm-3,,,
01-01-2009,10:00,,,,5,R,ugm-3,19,R,ugm-3,27,R,ugm-3,,,,0,R,ugm-3,,,
01-01-2009,11:00,,,,10,R,ugm-3,15,R,ugm-3,31,R,ugm-3,,,,0,R,ugm-3,,,
01-01-2009,12:00,,,,11,R,ugm-3,19,R,ugm-3,36,R,ugm-3,,,,3,R,ugm-3,,,
01-01-2009,13:00,,,,9,R,ugm-3,21,R,ugm-3,34,R,ugm-3,,,,3,R,ugm-3,,,
01-01-2009,14:00,,,,9,R,ugm-3,25,R,ugm-3,38,R,ugm-3,,,,3,R,ugm-3,,,
01-01-2009,15:00,,,,11,R,ugm-3,29,R,ugm-3,46,R,ugm-3,,,,5,R,ugm-3,,,
01-01-2009,16:00,,,,11,R,ugm-3,29,R,ugm-3,46,R,ugm-3,,,,5,R,ugm-3,,,
01-01-2009,17:00,,,,11,R,ugm-3,29,R,ugm-3,46,R,ugm-3,,,,5,R,ugm-3,,,
01-01-2009,18:00,,,,15,R,ugm-3,31,R,ugm-3,53,R,ugm-3,,,,5,R,ugm-3,,,
01-01-2009,19:00,,,,15,R,ugm-3,34,R,ugm-3,57,R,ugm-3,,,,3,R,ugm-3,,,
01-01-2009,20:00,,,,25,R,ugm-3,40,R,ugm-3,78,R,ugm-3,,,,5,R,ugm-3,,,
01-01-2009,21:00,,,,15,R,ugm-3,36,R,ugm-3,59,R,ugm-3,,,,5,R,ugm-3,,,
01-01-2009,22:00,,,,15,R,ugm-3,34,R,ugm-3,57,R,ugm-3,,,,5,R,ugm-3,,,
01-01-2009,23:00,,,,9,R,ugm-3,27,R,ugm-3,40,R,ugm-3,,,,3,R,ugm-3,,,
01-01-2009,24:00,,,,4,R,ugm-3,15,R,ugm-3,21,R,ugm-3,,,,0,R,ugm-3,,,
02-01-2009,01:00,,,,3,R,ugm-3,15,R,ugm-3,19,R,ugm-3,,,,0,R,ugm-3,,,
02-01-2009,02:00,,,,4,R,ugm-3,29,R,ugm-3,34,R,ugm-3,,,,0,R,ugm-3,,,
02-01-2009,03:00,,,,3,R,ugm-3,21,R,ugm-3,25,R,ugm-3,,,,0,R,ugm-3,,,
02-01-2009,04:00,,,,4,R,ugm-3,19,R,ugm-3,25,R,ugm-3,,,,0,R,ugm-3,,,
02-01-2009,05:00,,,,1,R,ugm-3,13,R,ugm-3,15,R,ugm-3,,,,3,R,ugm-3,,,
02-01-2009,06:00,,,,5,R,ugm-3,23,R,ugm-3,31,R,ugm-3,,,,0,R,ugm-3,,,
02-01-2009,07:00,,,,4,R,ugm-3,17,R,ugm-3,23,R,ugm-3,,,,0,R,ugm-3,,,
02-01-2009,08:00,,,,6,R,ugm-3,32,R,ugm-3,42,R,ugm-3,,,,0,R,ugm-3,,,
02-01-2009,09:00,,,,11,R,ugm-3,38,R,ugm-3,55,R,ugm-3,,,,0,R,ugm-3,,,
02-01-2009,10:00,,,,18,R,ugm-3,46,R,ugm-3,73,R,ugm-3,,,,0,R,ugm-3,,,
02-01-2009,11:00,,,,13,R,ugm-3,36,R,ugm-3,55,R,ugm-3,,,,0,R,ugm-3,,,
02-01-2009,12:00,,,,11,R,ugm-3,32,R,ugm-3,50,R,ugm-3,,,,0,R,ugm-3,,,
02-01-2009,13:00,,,,5,R,ugm-3,19,R,ugm-3,27,R,ugm-3,,,,0,R,ugm-3,,,
02-01-2009,14:00,,,,5,R,ugm-3,13,R,ugm-3,21,R,ugm-3,,,,0,R,ugm-3,,,
02-01-2009,15:00,,,,5,R,ugm-3,23,R,ugm-3,31,R,ugm-3,,,,0,R,ugm-3,,,
02-01-2009,16:00,,,,6,R,ugm-3,32,R,ugm-3,42,R,ugm-3,,,,5,R,ugm-3,,,
02-01-2009,17:00,,,,5,R,ugm-3,25,R,ugm-3,32,R,ugm-3,,,,16,R,ugm-3,,,
02-01-2009,18:00,,,,4,R,ugm-3,15,R,ugm-3,21,R,ugm-3,,,,3,R,ugm-3,,,
02-01-2009,19:00,,,,5,R,ugm-3,17,R,ugm-3,25,R,ugm-3,,,,3,R,ugm-3,,,
02-01-2009,20:00,,,,1,R,ugm-3,11,R,ugm-3,13,R,ugm-3,,,,0,R,ugm-3,,,
02-01-2009,21:00,,,,5,R,ugm-3,25,R,ugm-3,32,R,ugm-3,,,,0,R,ugm-3,,,
02-01-2009,22:00,,,,3,R,ugm-3,19,R,ugm-3,23,R,ugm-3,,,,0,R,ugm-3,,,
02-01-2009,23:00,,,,5,R,ugm-3,27,R,ugm-3,34,R,ugm-3,,,,0,R,ugm-3,,,
02-01-2009,24:00,,,,3,R,ugm-3,27,R,ugm-3,31,R,ugm-3,,,,0,R,ugm-3,,,
03-01-2009,01:00,,,,4,R,ugm-3,23,R,ugm-3,29,R,ugm-3,,,,0,R,ugm-3,,,
03-01-2009,02:00,,,,9,R,ugm-3,19,R,ugm-3,32,R,ugm-3,,,,0,R,ugm-3,,,
03-01-2009,03:00,,,,3,R,ugm-3,13,R,ugm-3,17,R,ugm-3,,,,0,R,ugm-3,,,
03-01-2009,04:00,,,,1,R,ugm-3,15,R,ugm-3,17,R,ugm-3,,,,0,R,ugm-3,,,
03-01-2009,05:00,,,,3,R,ugm-3,13,R,ugm-3,17,R,ugm-3,,,,0,R,ugm-3,,,
03-01-2009,06:00,,,,20,R,ugm-3,44,R,ugm-3,74,R,ugm-3,,,,0,R,ugm-3,,,
03-01-2009,07:00,,,,35,R,ugm-3,59,R,ugm-3,113,R,ugm-3,,,,0,R,ugm-3,,,
03-01-2009,08:00,,,,25,R,ugm-3,46,R,ugm-3,84,R,ugm-3,,,,3,R,ugm-3,,,
03-01-2009,09:00,,,,43,R,ugm-3,52,R,ugm-3,117,R,ugm-3,,,,5,R,ugm-3,,,
03-01-2009,10:00,,,,29,R,ugm-3,48,R,ugm-3,92,R,ugm-3,,,,3,R,ugm-3,,,
03-01-2009,11:00,,,,19,R,ugm-3,38,R,ugm-3,67,R,ugm-3,,,,3,R,ugm-3,,,
03-01-2009,12:00,,,,11,R,ugm-3,32,R,ugm-3,50,R,ugm-3,,,,0,R,ugm-3,,,
03-01-2009,13:00,,,,10,R,ugm-3,21,R,ugm-3,36,R,ugm-3,,,,0,R,ugm-3,,,
03-01-2009,14:00,,,,6,R,ugm-3,15,R,ugm-3,25,R,ugm-3,,,,0,R,ugm-3,,,
03-01-2009,15:00,,,,5,R,ugm-3,13,R,ugm-3,21,R,ugm-3,,,,0,R,ugm-3,,,
03-01-2009,16:00,,,,5,R,ugm-3,31,R,ugm-3,38,R,ugm-3,,,,0,R,ugm-3,,,
03-01-2009,17:00,,,,10,R,ugm-3,42,R,ugm-3,57,R,ugm-3,,,,5,R,ugm-3,,,
03-01-2009,18:00,,,,15,R,ugm-3,50,R,ugm-3,73,R,ugm-3,,,,8,R,ugm-3,,,
03-01-2009,19:00,,,,10,R,ugm-3,40,R,ugm-3,55,R,ugm-3,,,,5,R,ugm-3,,,
03-01-2009,20:00,,,,10,R,ugm-3,34,R,ugm-3,50,R,ugm-3,,,,5,R,ugm-3,,,
03-01-2009,21:00,,,,11,R,ugm-3,40,R,ugm-3,57,R,ugm-3,,,,8,R,ugm-3,,,
03-01-2009,22:00,,,,10,R,ugm-3,44,R,ugm-3,59,R,ugm-3,,,,8,R,ugm-3,,,
03-01-2009,23:00,,,,6,R,ugm-3,36,R,ugm-3,46,R,ugm-3,,,,8,R,ugm-3,,,
03-01-2009,24:00,,,,4,R,ugm-3,29,R,ugm-3,34,R,ugm-3,,,,8,R,ugm-3,,,
04-01-2009,01:00,,,,4,R,ugm-3,29,R,ugm-3,34,R,ugm-3,,,,5,R,ugm-3,,,
04-01-2009,02:00,,,,4,R,ugm-3,29,R,ugm-3,34,R,ugm-3,,,,5,R,ugm-3,,,
04-01-2009,03:00,,,,5,R,ugm-3,32,R,ugm-3,40,R,ugm-3,,,,5,R,ugm-3,,,
04-01-2009,04:00,,,,5,R,ugm-3,36,R,ugm-3,44,R,ugm-3,,,,8,R,ugm-3,,,
04-01-2009,05:00,,,,5,R,ugm-3,31,R,ugm-3,38,R,ugm-3,,,,8,R,ugm-3,,,
04-01-2009,06:00,,,,8,R,ugm-3,29,R,ugm-3,40,R,ugm-3,,,,5,R,ugm-3,,,
04-01-2009,07:00,,,,5,R,ugm-3,29,R,ugm-3,36,R,ugm-3,,,,5,R,ugm-3,,,
04-01-2009,08:00,,,,5,R,ugm-3,25,R,ugm-3,32,R,ugm-3,,,,5,R,ugm-3,,,
04-01-2009,09:00,,,,5,R,ugm-3,27,R,ugm-3,34,R,ugm-3,,,,5,R,ugm-3,,,
04-01-2009,10:00,,,,13,R,ugm-3,31,R,ugm-3,50,R,ugm-3,,,,5,R,ugm-3,,,
04-01-2009,11:00,,,,15,R,ugm-3,32,R,ugm-3,55,R,ugm-3,,,,5,R,ugm-3,,,
04-01-2009,12:00,,,,11,R,ugm-3,29,R,ugm-3,46,R,ugm-3,,,,5,R,ugm-3,,,
04-01-2009,13:00,,,,14,R,ugm-3,29,R,ugm-3,50,R,ugm-3,,,,8,R,ugm-3,,,
04-01-2009,14:00,,,,13,R,ugm-3,29,R,ugm-3,48,R,ugm-3,,,,5,R,ugm-3,,,
04-01-2009,15:00,,,,13,R,ugm-3,38,R,ugm-3,57,R,ugm-3,,,,5,R,ugm-3,,,
04-01-2009,16:00,,,,20,R,ugm-3,50,R,ugm-3,80,R,ugm-3,,,,11,R,ugm-3,,,
04-01-2009,17:00,,,,24,R,ugm-3,52,R,ugm-3,88,R,ugm-3,,,,8,R,ugm-3,,,
04-01-2009,18:00,,,,28,R,ugm-3,52,R,ugm-3,94,R,ugm-3,,,,8,R,ugm-3,,,
04-01-2009,19:00,,,,25,R,ugm-3,52,R,ugm-3,90,R,ugm-3,,,,8,R,ugm-3,,,
04-01-2009,20:00,,,,21,R,ugm-3,53,R,ugm-3,86,R,ugm-3,,,,5,R,ugm-3,,,
04-01-2009,21:00,,,,26,R,ugm-3,52,R,ugm-3,92,R,ugm-3,,,,5,R,ugm-3,,,
04-01-2009,22:00,,,,18,R,ugm-3,52,R,ugm-3,78,R,ugm-3,,,,5,R,ugm-3,,,
04-01-2009,23:00,,,,14,R,ugm-3,44,R,ugm-3,65,R,ugm-3,,,,3,R,ugm-3,,,
04-01-2009,24:00,,,,5,R,ugm-3,15,R,ugm-3,23,R,ugm-3,,,,0,R,ugm-3,,,
05-01-2009,01:00,,,,1,R,ugm-3,11,R,ugm-3,13,R,ugm-3,,,,0,R,ugm-3,,,
05-01-2009,02:00,,,,1,R,ugm-3,8,R,ugm-3,10,R,ugm-3,,,,0,R,ugm-3,,,
05-01-2009,03:00,,,,1,R,ugm-3,11,R,ugm-3,13,R,ugm-3,,,,0,R,ugm-3,,,
05-01-2009,04:00,,,,4,R,ugm-3,4,R,ugm-3,10,R,ugm-3,,,,0,R,ugm-3,,,
05-01-2009,05:00,,,,4,R,ugm-3,4,R,ugm-3,10,R,ugm-3,,,,3,R,ugm-3,,,
05-01-2009,06:00,,,,5,R,ugm-3,11,R,ugm-3,19,R,ugm-3,,,,3,R,ugm-3,,,
05-01-2009,07:00,,,,8,R,ugm-3,29,R,ugm-3,40,R,ugm-3,,,,27,R,ugm-3,,,
05-01-2009,08:00,,,,8,R,ugm-3,23,R,ugm-3,34,R,ugm-3,,,,19,R,ugm-3,,,
05-01-2009,09:00,,,,8,R,ugm-3,25,R,ugm-3,36,R,ugm-3,,,,24,R,ugm-3,,,
05-01-2009,10:00,,,,6,R,ugm-3,23,R,ugm-3,32,R,ugm-3,,,,19,R,ugm-3,,,
05-01-2009,11:00,,,,6,R,ugm-3,23,R,ugm-3,32,R,ugm-3,,,,3,R,ugm-3,,,
05-01-2009,12:00,,,,8,R,ugm-3,23,R,ugm-3,34,R,ugm-3,,,,11,R,ugm-3,,,
05-01-2009,13:00,,,,5,R,ugm-3,15,R,ugm-3,23,R,ugm-3,,,,27,R,ugm-3,,,
05-01-2009,14:00,,,,6,R,ugm-3,17,R,ugm-3,27,R,ugm-3,,,,11,R,ugm-3,,,
05-01-2009,15:00,,,,6,R,ugm-3,29,R,ugm-3,38,R,ugm-3,,,,19,R,ugm-3,,,
05-01-2009,16:00,,,,5,R,ugm-3,25,R,ugm-3,32,R,ugm-3,,,,19,R,ugm-3,,,
05-01-2009,17:00,,,,5,R,ugm-3,34,R,ugm-3,42,R,ugm-3,,,,32,R,ugm-3,,,
05-01-2009,18:00,,,,10,R,ugm-3,32,R,ugm-3,48,R,ugm-3,,,,19,R,ugm-3,,,
05-01-2009,19:00,,,,8,R,ugm-3,27,R,ugm-3,38,R,ugm-3,,,,3,R,ugm-3,,,
05-01-2009,20:00,,,,3,R,ugm-3,17,R,ugm-3,21,R,ugm-3,,,,21,R,ugm-3,,,
05-01-2009,21:00,,,,1,R,ugm-3,10,R,ugm-3,11,R,ugm-3,,,,16,R,ugm-3,,,
05-01-2009,22:00,,,,3,R,ugm-3,11,R,ugm-3,15,R,ugm-3,,,,8,R,ugm-3,,,
05-01-2009,23:00,,,,4,R,ugm-3,17,R,ugm-3,23,R,ugm-3,,,,27,R,ugm-3,,,
05-01-2009,24:00,,,,3,R,ugm-3,13,R,ugm-3,17,R,ugm-3,,,,11,R,ugm-3,,,
06-01-2009,01:00,,,,9,R,ugm-3,15,R,ugm-3,29,R,ugm-3,,,,5,R,ugm-3,,,
06-01-2009,02:00,,,,3,R,ugm-3,15,R,ugm-3,19,R,ugm-3,,,,3,R,ugm-3,,,
06-01-2009,03:00,,,,5,R,ugm-3,23,R,ugm-3,31,R,ugm-3,,,,5,R,ugm-3,,,
06-01-2009,04:00,,,,5,R,ugm-3,29,R,ugm-3,36,R,ugm-3,,,,5,R,ugm-3,,,
06-01-2009,05:00,,,,13,R,ugm-3,44,R,ugm-3,63,R,ugm-3,,,,3,R,ugm-3,,,
06-01-2009,06:00,,,,13,R,ugm-3,46,R,ugm-3,65,R,ugm-3,,,,0,R,ugm-3,,,
06-01-2009,07:00,,,,28,R,ugm-3,44,R,ugm-3,86,R,ugm-3,,,,0,R,ugm-3,,,
06-01-2009,08:00,,,,24,R,ugm-3,46,R,ugm-3,82,R,ugm-3,,,,0,R,ugm-3,,,
06-01-2009,09:00,,,,20,R,ugm-3,46,R,ugm-3,76,R,ugm-3,,,,0,R,ugm-3,,,
06-01-2009,10:00,,,,20,R,ugm-3,40,R,ugm-3,71,R,ugm-3,,,,0,R,ugm-3,,,
06-01-2009,11:00,,,,15,R,ugm-3,34,R,ugm-3,57,R,ugm-3,,,,0,R,ugm-3,,,
06-01-2009,12:00,,,,13,R,ugm-3,27,R,ugm-3,46,R,ugm-3,,,,0,R,ugm-3,,,
06-01-2009,13:00,,,,13,R,ugm-3,29,R,ugm-3,48,R,ugm-3,,,,3,R,ugm-3,,,
06-01-2009,14:00,,,,36,R,ugm-3,52,R,ugm-3,107,R,ugm-3,,,,8,R,ugm-3,,,
06-01-2009,15:00,,,,50,R,ugm-3,65,R,ugm-3,141,R,ugm-3,,,,11,R,ugm-3,,,
06-01-2009,16:00,,,,26,R,ugm-3,57,R,ugm-3,97,R,ugm-3,,,,5,R,ugm-3,,,
06-01-2009,17:00,,,,24,R,ugm-3,63,R,ugm-3,99,R,ugm-3,,,,5,R,ugm-3,,,
06-01-2009,18:00,,,,31,R,ugm-3,74,R,ugm-3,122,R,ugm-3,,,,8,R,ugm-3,,,
06-01-2009,19:00,,,,59,R,ugm-3,86,R,ugm-3,176,R,ugm-3,,,,8,R,ugm-3,,,
06-01-2009,20:00,,,,53,R,ugm-3,82,R,ugm-3,162,R,ugm-3,,,,11,R,ugm-3,,,
06-01-2009,21:00,,,,38,R,ugm-3,74,R,ugm-3,132,R,ugm-3,,,,8,R,ugm-3,,,
06-01-2009,22:00,,,,26,R,ugm-3,65,R,ugm-3,105,R,ugm-3,,,,5,R,ugm-3,,,
06-01-2009,23:00,,,,15,R,ugm-3,57,R,ugm-3,80,R,ugm-3,,,,5,R,ugm-3,,,
06-01-2009,24:00,,,,10,R,ugm-3,46,R,ugm-3,61,R,ugm-3,,,,5,R,ugm-3,,,
07-01-2009,01:00,,,,5,R,ugm-3,36,R,ugm-3,44,R,ugm-3,,,,5,R,ugm-3,,,
07-01-2009,02:00,,,,6,R,ugm-3,19,R,ugm-3,29,R,ugm-3,,,,3,R,ugm-3,,,
07-01-2009,03:00,,,,3,R,ugm-3,11,R,ugm-3,15,R,ugm-3,,,,0,R,ugm-3,,,
07-01-2009,04:00,,,,3,R,ugm-3,11,R,ugm-3,15,R,ugm-3,,,,0,R,ugm-3,,,
07-01-2009,05:00,,,,4,R,ugm-3,13,R,ugm-3,19,R,ugm-3,,,,0,R,ugm-3,,,
07-01-2009,06:00,,,,5,R,ugm-3,13,R,ugm-3,21,R,ugm-3,,,,0,R,ugm-3,,,
07-01-2009,07:00,,,,11,R,ugm-3,27,R,ugm-3,44,R,ugm-3,,,,0,R,ugm-3,,,
07-01-2009,08:00,,,,9,R,ugm-3,25,R,ugm-3,38,R,ugm-3,,,,0,R,ugm-3,,,
07-01-2009,09:00,,,,14,R,ugm-3,42,R,ugm-3,63,R,ugm-3,,,,0,R,ugm-3,,,
07-01-2009,10:00,,,,20,R,ugm-3,46,R,ugm-3,76,R,ugm-3,,,,0,R,ugm-3,,,
07-01-2009,11:00,,,,25,R,ugm-3,52,R,ugm-3,90,R,ugm-3,,,,5,R,ugm-3,,,
07-01-2009,12:00,,,,28,R,ugm-3,50,R,ugm-3,92,R,ugm-3,,,,3,R,ugm-3,,,
07-01-2009,13:00,,,,43,R,ugm-3,55,R,ugm-3,120,R,ugm-3,,,,5,R,ugm-3,,,
07-01-2009,14:00,,,,45,R,ugm-3,57,R,ugm-3,126,R,ugm-3,,,,5,R,ugm-3,,,
07-01-2009,15:00,,,,48,R,ugm-3,59,R,ugm-3,132,R,ugm-3,,,,5,R,ugm-3,,,
07-01-2009,16:00,,,,44,R,ugm-3,61,R,ugm-3,128,R,ugm-3,,,,5,R,ugm-3,,,
07-01-2009,17:00,,,,45,R,ugm-3,63,R,ugm-3,132,R,ugm-3,,,,5,R,ugm-3,,,
07-01-2009,18:00,,,,80,R,ugm-3,76,R,ugm-3,199,R,ugm-3,,,,8,R,ugm-3,,,
07-01-2009,19:00,,,,88,R,ugm-3,76,R,ugm-3,210,R,ugm-3,,,,11,R,ugm-3,,,
07-01-2009,20:00,,,,55,R,ugm-3,69,R,ugm-3,153,R,ugm-3,,,,8,R,ugm-3,,,
07-01-2009,21:00,,,,54,R,ugm-3,71,R,ugm-3,153,R,ugm-3,,,,8,R,ugm-3,,,
07-01-2009,22:00,,,,48,R,ugm-3,61,R,ugm-3,134,R,ugm-3,,,,,,,,,
07-01-2009,23:00,,,,38,R,ugm-3,50,R,ugm-3,107,R,ugm-3,,,,5,R,ugm-3,,,
07-01-2009,24:00,,,,23,R,ugm-3,46,R,ugm-3,80,R,ugm-3,,,,,,,,,
08-01-2009,01:00,,,,10,R,ugm-3,50,R,ugm-3,65,R,ugm-3,,,,5,R,ugm-3,,,
08-01-2009,02:00,,,,23,R,ugm-3,50,R,ugm-3,84,R,ugm-3,,,,,,,,,
08-01-2009,03:00,,,,24,R,ugm-3,50,R,ugm-3,86,R,ugm-3,,,,,,,,,
08-01-2009,04:00,,,,19,R,ugm-3,48,R,ugm-3,76,R,ugm-3,,,,,,,,,
08-01-2009,05:00,,,,9,R,ugm-3,44,R,ugm-3,57,R,ugm-3,,,,,,,,,
08-01-2009,06:00,,,,15,R,ugm-3,40,R,ugm-3,63,R,ugm-3,,,,3,R,ugm-3,,,
08-01-2009,07:00,,,,28,R,ugm-3,40,R,ugm-3,82,R,ugm-3,,,,5,R,ugm-3,,,
08-01-2009,08:00,,,,44,R,ugm-3,50,R,ugm-3,117,R,ugm-3,,,,5,R,ugm-3,,,
08-01-2009,09:00,,,,55,R,ugm-3,53,R,ugm-3,138,R,ugm-3,,,,,,,,,
08-01-2009,10:00,,,,45,R,ugm-3,50,R,ugm-3,118,R,ugm-3,,,,,,,,,
08-01-2009,11:00,,,,30,R,ugm-3,48,R,ugm-3,94,R,ugm-3,,,,5,R,ugm-3,,,
08-01-2009,12:00,,,,25,R,ugm-3,46,R,ugm-3,84,R,ugm-3,,,,5,R,ugm-3,,,
08-01-2009,13:00,,,,25,R,ugm-3,44,R,ugm-3,82,R,ugm-3,,,,5,R,ugm-3,,,
08-01-2009,14:00,,,,26,R,ugm-3,55,R,ugm-3,96,R,ugm-3,,,,5,R,ugm-3,,,
08-01-2009,15:00,,,,26,R,ugm-3,55,R,ugm-3,96,R,ugm-3,,,,5,R,ugm-3,,,
08-01-2009,16:00,,,,50,R,ugm-3,65,R,ugm-3,141,R,ugm-3,,,,5,R,ugm-3,,,
08-01-2009,17:00,,,,80,R,ugm-3,69,R,ugm-3,191,R,ugm-3,,,,5,R,ugm-3,,,
08-01-2009,18:00,,,,111,R,ugm-3,76,R,ugm-3,246,R,ugm-3,,,,8,R,ugm-3,,,
08-01-2009,19:00,,,,46,R,ugm-3,53,R,ugm-3,124,R,ugm-3,,,,,,,,,
08-01-2009,20:00,,,,25,R,ugm-3,53,R,ugm-3,92,R,ugm-3,,,,0,R,ugm-3,,,
08-01-2009,21:00,,,,11,R,ugm-3,52,R,ugm-3,69,R,ugm-3,,,,0,R,ugm-3,,,
08-01-2009,22:00,,,,9,R,ugm-3,48,R,ugm-3,61,R,ugm-3,,,,0,R,ugm-3,,,
08-01-2009,23:00,,,,0,R,ugm-3,40,R,ugm-3,40,R,ugm-3,,,,0,R,ugm-3,,,
08-01-2009,24:00,,,,1,R,ugm-3,46,R,ugm-3,48,R,ugm-3,,,,5,R,ugm-3,,,
09-01-2009,01:00,,,,6,R,ugm-3,44,R,ugm-3,53,R,ugm-3,,,,5,R,ugm-3,,,
09-01-2009,02:00,,,,1,R,ugm-3,46,R,ugm-3,48,R,ugm-3,,,,5,R,ugm-3,,,
09-01-2009,03:00,,,,3,R,ugm-3,38,R,ugm-3,42,R,ugm-3,,,,3,R,ugm-3,,,
09-01-2009,04:00,,,,1,R,ugm-3,34,R,ugm-3,36,R,ugm-3,,,,0,R,ugm-3,,,
09-01-2009,05:00,,,,11,R,ugm-3,48,R,ugm-3,65,R,ugm-3,,,,8,R,ugm-3,,,
09-01-2009,06:00,,,,18,R,ugm-3,52,R,ugm-3,78,R,ugm-3,,,,13,R,ugm-3,,,
09-01-2009,07:00,,,,39,R,ugm-3,59,R,ugm-3,118,R,ugm-3,,,,21,R,ugm-3,,,
09-01-2009,08:00,,,,38,R,ugm-3,57,R,ugm-3,115,R,ugm-3,,,,19,R,ugm-3,,,
09-01-2009,09:00,,,,20,R,ugm-3,53,R,ugm-3,84,R,ugm-3,,,,11,R,ugm-3,,,
09-01-2009,10:00,,,,16,R,ugm-3,48,R,ugm-3,73,R,ugm-3,,,,11,R,ugm-3,,,
09-01-2009,11:00,,,,18,R,ugm-3,46,R,ugm-3,73,R,ugm-3,,,,11,R,ugm-3,,,
09-01-2009,12:00,,,,14,R,ugm-3,42,R,ugm-3,63,R,ugm-3,,,,5,R,ugm-3,,,
09-01-2009,13:00,,,,16,R,ugm-3,40,R,ugm-3,65,R,ugm-3,,,,5,R,ugm-3,,,
09-01-2009,14:00,,,,25,R,ugm-3,48,R,ugm-3,86,R,ugm-3,,,,11,R,ugm-3,,,
09-01-2009,15:00,,,,45,R,ugm-3,57,R,ugm-3,126,R,ugm-3,,,,21,R,ugm-3,,,
09-01-2009,16:00,,,,40,R,ugm-3,63,R,ugm-3,124,R,ugm-3,,,,21,R,ugm-3,,,
09-01-2009,17:00,,,,33,R,ugm-3,65,R,ugm-3,115,R,ugm-3,,,,27,R,ugm-3,,,
09-01-2009,18:00,,,,63,R,ugm-3,73,R,ugm-3,168,R,ugm-3,,,,29,R,ugm-3,,,
09-01-2009,19:00,,,,83,R,ugm-3,76,R,ugm-3,202,R,ugm-3,,,,24,R,ugm-3,,,
09-01-2009,20:00,,,,38,R,ugm-3,65,R,ugm-3,122,R,ugm-3,,,,11,R,ugm-3,,,
09-01-2009,21:00,,,,15,R,ugm-3,53,R,ugm-3,76,R,ugm-3,,,,5,R,ugm-3,,,
09-01-2009,22:00,,,,6,R,ugm-3,42,R,ugm-3,52,R,ugm-3,,,,3,R,ugm-3,,,
09-01-2009,23:00,,,,3,R,ugm-3,25,R,ugm-3,29,R,ugm-3,,,,3,R,ugm-3,,,
09-01-2009,24:00,,,,3,R,ugm-3,32,R,ugm-3,36,R,ugm-3,,,,3,R,ugm-3,,,
10-01-2009,01:00,,,,1,R,ugm-3,42,R,ugm-3,44,R,ugm-3,,,,0,R,ugm-3,,,
10-01-2009,02:00,,,,3,R,ugm-3,44,R,ugm-3,48,R,ugm-3,,,,0,R,ugm-3,,,
10-01-2009,03:00,,,,3,R,ugm-3,48,R,ugm-3,52,R,ugm-3,,,,3,R,ugm-3,,,
10-01-2009,04:00,,,,8,R,ugm-3,55,R,ugm-3,67,R,ugm-3,,,,5,R,ugm-3,,,
10-01-2009,05:00,,,,19,R,ugm-3,63,R,ugm-3,92,R,ugm-3,,,,8,R,ugm-3,,,
10-01-2009,06:00,,,,50,R,ugm-3,69,R,ugm-3,145,R,ugm-3,,,,19,R,ugm-3,,,
10-01-2009,07:00,,,,49,R,ugm-3,65,R,ugm-3,139,R,ugm-3,,,,21,R,ugm-3,,,
10-01-2009,08:00,,,,49,R,ugm-3,63,R,ugm-3,138,R,ugm-3,,,,21,R,ugm-3,,,
10-01-2009,09:00,,,,34,R,ugm-3,63,R,ugm-3,115,R,ugm-3,,,,13,R,ugm-3,,,
10-01-2009,10:00,,,,16,R,ugm-3,50,R,ugm-3,74,R,ugm-3,,,,5,R,ugm-3,,,
10-01-2009,11:00,,,,28,R,ugm-3,50,R,ugm-3,92,R,ugm-3,,,,11,R,ugm-3,,,
10-01-2009,12:00,,,,29,R,ugm-3,48,R,ugm-3,92,R,ugm-3,,,,16,R,ugm-3,,,
10-01-2009,13:00,,,,39,R,ugm-3,52,R,ugm-3,111,R,ugm-3,,,,24,R,ugm-3,,,
10-01-2009,14:00,,,,25,R,ugm-3,48,R,ugm-3,86,R,ugm-3,,,,11,R,ugm-3,,,
10-01-2009,15:00,,,,14,R,ugm-3,46,R,ugm-3,67,R,ugm-3,,,,8,R,ugm-3,,,
10-01-2009,16:00,,,,10,R,ugm-3,40,R,ugm-3,55,R,ugm-3,,,,5,R,ugm-3,,,
10-01-2009,17:00,,,,8,R,ugm-3,42,R,ugm-3,53,R,ugm-3,,,,5,R,ugm-3,,,
10-01-2009,18:00,,,,9,R,ugm-3,36,R,ugm-3,50,R,ugm-3,,,,5,R,ugm-3,,,
10-01-2009,19:00,,,,6,R,ugm-3,38,R,ugm-3,48,R,ugm-3,,,,5,R,ugm-3,,,
10-01-2009,20:00,,,,3,R,ugm-3,32,R,ugm-3,36,R,ugm-3,,,,5,R,ugm-3,,,
10-01-2009,21:00,,,,3,R,ugm-3,38,R,ugm-3,42,R,ugm-3,,,,5,R,ugm-3,,,
10-01-2009,22:00,,,,3,R,ugm-3,34,R,ugm-3,38,R,ugm-3,,,,5,R,ugm-3,,,
10-01-2009,23:00,,,,3,R,ugm-3,34,R,ugm-3,38,R,ugm-3,,,,5,R,ugm-3,,,
10-01-2009,24:00,,,,1,R,ugm-3,29,R,ugm-3,31,R,ugm-3,,,,5,R,ugm-3,,,
11-01-2009,01:00,,,,1,R,ugm-3,23,R,ugm-3,25,R,ugm-3,,,,5,R,ugm-3,,,
11-01-2009,02:00,,,,3,R,ugm-3,21,R,ugm-3,25,R,ugm-3,,,,5,R,ugm-3,,,
11-01-2009,03:00,,,,3,R,ugm-3,21,R,ugm-3,25,R,ugm-3,,,,5,R,ugm-3,,,
11-01-2009,04:00,,,,1,R,ugm-3,19,R,ugm-3,21,R,ugm-3,,,,5,R,ugm-3,,,
11-01-2009,05:00,,,,3,R,ugm-3,21,R,ugm-3,25,R,ugm-3,,,,5,R,ugm-3,,,
11-01-2009,06:00,,,,3,R,ugm-3,19,R,ugm-3,23,R,ugm-3,,,,5,R,ugm-3,,,
11-01-2009,07:00,,,,4,R,ugm-3,23,R,ugm-3,29,R,ugm-3,,,,5,R,ugm-3,,,
11-01-2009,08:00,,,,5,R,ugm-3,27,R,ugm-3,34,R,ugm-3,,,,8,R,ugm-3,,,
11-01-2009,09:00,,,,5,R,ugm-3,19,R,ugm-3,27,R,ugm-3,,,,5,R,ugm-3,,,
11-01-2009,10:00,,,,5,R,ugm-3,19,R,ugm-3,27,R,ugm-3,,,,5,R,ugm-3,,,
11-01-2009,11:00,,,,8,R,ugm-3,19,R,ugm-3,31,R,ugm-3,,,,,,,,,
11-01-2009,12:00,,,,9,R,ugm-3,25,R,ugm-3,38,R,ugm-3,,,,,,,,,
11-01-2009,13:00,,,,8,R,ugm-3,21,R,ugm-3,32,R,ugm-3,,,,8,R,ugm-3,,,
11-01-2009,14:00,,,,6,R,ugm-3,11,R,ugm-3,21,R,ugm-3,,,,5,R,ugm-3,,,
11-01-2009,15:00,,,,6,R,ugm-3,17,R,ugm-3,27,R,ugm-3,,,,5,R,ugm-3,,,
11-01-2009,16:00,,,,8,R,ugm-3,11,R,ugm-3,23,R,ugm-3,,,,5,R,ugm-3,,,
11-01-2009,17:00,,,,5,R,ugm-3,11,R,ugm-3,19,R,ugm-3,,,,5,R,ugm-3,,,
11-01-2009,18:00,,,,5,R,ugm-3,11,R,ugm-3,19,R,ugm-3,,,,3,R,ugm-3,,,
11-01-2009,19:00,,,,4,R,ugm-3,17,R,ugm-3,23,R,ugm-3,,,,,,,,,
11-01-2009,20:00,,,,5,R,ugm-3,11,R,ugm-3,19,R,ugm-3,,,,,,,,,
11-01-2009,21:00,,,,3,R,ugm-3,29,R,ugm-3,32,R,ugm-3,,,,8,R,ugm-3,,,
11-01-2009,22:00,,,,5,R,ugm-3,36,R,ugm-3,44,R,ugm-3,,,,11,R,ugm-3,,,
11-01-2009,23:00,,,,3,R,ugm-3,31,R,ugm-3,34,R,ugm-3,,,,8,R,ugm-3,,,
11-01-2009,24:00,,,,1,R,ugm-3,19,R,ugm-3,21,R,ugm-3,,,,,,,,,
12-01-2009,01:00,,,,1,R,ugm-3,8,R,ugm-3,10,R,ugm-3,,,,5,R,ugm-3,,,
12-01-2009,02:00,,,,1,R,ugm-3,23,R,ugm-3,25,R,ugm-3,,,,11,R,ugm-3,,,
12-01-2009,03:00,,,,1,R,ugm-3,15,R,ugm-3,17,R,ugm-3,,,,11,R,ugm-3,,,
12-01-2009,04:00,,,,1,R,ugm-3,17,R,ugm-3,19,R,ugm-3,,,,8,R,ugm-3,,,
12-01-2009,05:00,,,,1,R,ugm-3,17,R,ugm-3,19,R,ugm-3,,,,8,R,ugm-3,,,
12-01-2009,06:00,,,,5,R,ugm-3,8,R,ugm-3,15,R,ugm-3,,,,8,R,ugm-3,,,
12-01-2009,07:00,,,,5,R,ugm-3,17,R,ugm-3,25,R,ugm-3,,,,5,R,ugm-3,,,
12-01-2009,08:00,,,,8,R,ugm-3,15,R,ugm-3,27,R,ugm-3,,,,5,R,ugm-3,,,
12-01-2009,09:00,,,,6,R,ugm-3,25,R,ugm-3,34,R,ugm-3,,,,5,R,ugm-3,,,
12-01-2009,10:00,,,,6,R,ugm-3,13,R,ugm-3,23,R,ugm-3,,,,3,R,ugm-3,,,
12-01-2009,11:00,,,,9,R,ugm-3,27,R,ugm-3,40,R,ugm-3,,,,5,R,ugm-3,,,
12-01-2009,12:00,,,,9,R,ugm-3,42,R,ugm-3,55,R,ugm-3,,,,,,,,,
12-01-2009,13:00,,,,,,,,,,,,,,,,,,,,,
12-01-2009,14:00,,,,11,R,ugm-3,29,R,ugm-3,46,R,ugm-3,,,,0,R,ugm-3,,,
12-01-2009,15:00,,,,8,R,ugm-3,29,R,ugm-3,40,R,ugm-3,,,,0,R,ugm-3,,,
12-01-2009,16:00,,,,11,R,ugm-3,32,R,ugm-3,50,R,ugm-3,,,,0,R,ugm-3,,,
12-01-2009,17:00,,,,16,R,ugm-3,46,R,ugm-3,71,R,ugm-3,,,,0,R,ugm-3,,,
12-01-2009,18:00,,,,10,R,ugm-3,36,R,ugm-3,52,R,ugm-3,,,,0,R,ugm-3,,,
12-01-2009,19:00,,,,8,R,ugm-3,32,R,ugm-3,44,R,ugm-3,,,,3,R,ugm-3,,,
12-01-2009,20:00,,,,10,R,ugm-3,38,R,ugm-3,53,R,ugm-3,,,,5,R,ugm-3,,,
12-01-2009,21:00,,,,14,R,ugm-3,52,R,ugm-3,73,R,ugm-3,,,,5,R,ugm-3,,,
12-01-2009,22:00,,,,11,R,ugm-3,40,R,ugm-3,57,R,ugm-3,,,,5,R,ugm-3,,,
12-01-2009,23:00,,,,5,R,ugm-3,25,R,ugm-3,32,R,ugm-3,,,,5,R,ugm-3,,,
12-01-2009,24:00,,,,3,R,ugm-3,13,R,ugm-3,17,R,ugm-3,,,,5,R,ugm-3,,,
13-01-2009,01:00,,,,1,R,ugm-3,10,R,ugm-3,11,R,ugm-3,,,,3,R,ugm-3,,,
13-01-2009,02:00,,,,3,R,ugm-3,10,R,ugm-3,13,R,ugm-3,,,,3,R,ugm-3,,,
13-01-2009,03:00,,,,1,R,ugm-3,11,R,ugm-3,13,R,ugm-3,,,,0,R,ugm-3,,,
13-01-2009,04:00,,,,3,R,ugm-3,8,R,ugm-3,11,R,ugm-3,,,,0,R,ugm-3,,,
13-01-2009,05:00,,,,4,R,ugm-3,10,R,ugm-3,15,R,ugm-3,,,,0,R,ugm-3,,,
13-01-2009,06:00,,,,8,R,ugm-3,13,R,ugm-3,25,R,ugm-3,,,,0,R,ugm-3,,,
13-01-2009,07:00,,,,8,R,ugm-3,17,R,ugm-3,29,R,ugm-3,,,,0,R,ugm-3,,,
13-01-2009,08:00,,,,16,R,ugm-3,32,R,ugm-3,57,R,ugm-3,,,,3,R,ugm-3,,,
13-01-2009,09:00,,,,16,R,ugm-3,40,R,ugm-3,65,R,ugm-3,,,,0,R,ugm-3,,,
13-01-2009,10:00,,,,,,,,,,,,,,,,,,,,,
13-01-2009,11:00,,,,,,,,,,,,,,,,,,,,,
13-01-2009,12:00,,,,,,,,,,,,,,,,,,,,,
13-01-2009,13:00,,,,13,R,ugm-3,31,R,ugm-3,50,R,ugm-3,,,,11,R,ugm-3,,,
13-01-2009,14:00,,,,13,R,ugm-3,32,R,ugm-3,52,R,ugm-3,,,,3,R,ugm-3,,,
13-01-2009,15:00,,,,13,R,ugm-3,34,R,ugm-3,53,R,ugm-3,,,,3,R,ugm-3,,,
13-01-2009,16:00,,,,23,R,ugm-3,59,R,ugm-3,94,R,ugm-3,,,,3,R,ugm-3,,,
13-01-2009,17:00,,,,15,R,ugm-3,57,R,ugm-3,80,R,ugm-3,,,,5,R,ugm-3,,,
13-01-2009,18:00,,,,16,R,ugm-3,53,R,ugm-3,78,R,ugm-3,,,,5,R,ugm-3,,,
13-01-2009,19:00,,,,8,R,ugm-3,50,R,ugm-3,61,R,ugm-3,,,,5,R,ugm-3,,,
13-01-2009,20:00,,,,19,R,ugm-3,65,R,ugm-3,94,R,ugm-3,,,,5,R,ugm-3,,,
13-01-2009,21:00,,,,36,R,ugm-3,67,R,ugm-3,122,R,ugm-3,,,,8,R,ugm-3,,,
13-01-2009,22:00,,,,34,R,ugm-3,69,R,ugm-3,120,R,ugm-3,,,,5,R,ugm-3,,,
13-01-2009,23:00,,,,16,R,ugm-3,57,R,ugm-3,82,R,ugm-3,,,,5,R,ugm-3,,,
13-01-2009,24:00,,,,11,R,ugm-3,52,R,ugm-3,69,R,ugm-3,,,,5,R,ugm-3,,,
14-01-2009,01:00,,,,4,R,ugm-3,61,R,ugm-3,67,R,ugm-3,,,,5,R,ugm-3,,,
14-01-2009,02:00,,,,13,R,ugm-3,55,R,ugm-3,74,R,ugm-3,,,,5,R,ugm-3,,,
14-01-2009,03:00,,,,14,R,ugm-3,53,R,ugm-3,74,R,ugm-3,,,,5,R,ugm-3,,,
14-01-2009,04:00,,,,11,R,ugm-3,52,R,ugm-3,69,R,ugm-3,,,,5,R,ugm-3,,,
14-01-2009,05:00,,,,21,R,ugm-3,44,R,ugm-3,76,R,ugm-3,,,,5,R,ugm-3,,,
14-01-2009,06:00,,,,49,R,ugm-3,50,R,ugm-3,124,R,ugm-3,,,,5,R,ugm-3,,,
14-01-2009,07:00,,,,99,R,ugm-3,73,R,ugm-3,223,R,ugm-3,,,,8,R,ugm-3,,,
14-01-2009,08:00,,,,160,R,ugm-3,90,R,ugm-3,334,R,ugm-3,,,,8,R,ugm-3,,,
14-01-2009,09:00,,,,126,R,ugm-3,80,R,ugm-3,273,R,ugm-3,,,,8,R,ugm-3,,,
14-01-2009,10:00,,,,74,R,ugm-3,57,R,ugm-3,170,R,ugm-3,,,,5,R,ugm-3,,,
14-01-2009,11:00,,,,44,R,ugm-3,48,R,ugm-3,115,R,ugm-3,,,,5,R,ugm-3,,,
14-01-2009,12:00,,,,38,R,ugm-3,46,R,ugm-3,103,R,ugm-3,,,,5,R,ugm-3,,,
14-01-2009,13:00,,,,38,R,ugm-3,50,R,ugm-3,107,R,ugm-3,,,,5,R,ugm-3,,,
14-01-2009,14:00,,,,31,R,ugm-3,50,R,ugm-3,97,R,ugm-3,,,,5,R,ugm-3,,,
14-01-2009,15:00,,,,26,R,ugm-3,57,R,ugm-3,97,R,ugm-3,,,,5,R,ugm-3,,,
14-01-2009,16:00,,,,16,R,ugm-3,59,R,ugm-3,84,R,ugm-3,,,,5,R,ugm-3,,,
14-01-2009,17:00,,,,30,R,ugm-3,71,R,ugm-3,117,R,ugm-3,,,,5,R,ugm-3,,,
14-01-2009,18:00,,,,15,R,ugm-3,57,R,ugm-3,80,R,ugm-3,,,,3,R,ugm-3,,,
14-01-2009,19:00,,,,9,R,ugm-3,55,R,ugm-3,69,R,ugm-3,,,,3,R,ugm-3,,,
14-01-2009,20:00,,,,5,R,ugm-3,63,R,ugm-3,71,R,ugm-3,,,,5,R,ugm-3,,,
14-01-2009,21:00,,,,1,R,ugm-3,55,R,ugm-3,57,R,ugm-3,,,,0,R,ugm-3,,,
14-01-2009,22:00,,,,4,R,ugm-3,63,R,ugm-3,69,R,ugm-3,,,,3,R,ugm-3,,,
14-01-2009,23:00,,,,0,R,ugm-3,59,R,ugm-3,59,R,ugm-3,,,,3,R,ugm-3,,,
14-01-2009,24:00,,,,3,R,ugm-3,76,R,ugm-3,80,R,ugm-3,,,,3,R,ugm-3,,,
15-01-2009,01:00,,,,10,R,ugm-3,63,R,ugm-3,78,R,ugm-3,,,,3,R,ugm-3,,,
15-01-2009,02:00,,,,3,R,ugm-3,48,R,ugm-3,52,R,ugm-3,,,,3,R,ugm-3,,,
15-01-2009,03:00,,,,4,R,ugm-3,34,R,ugm-3,40,R,ugm-3,,,,3,R,ugm-3,,,
15-01-2009,04:00,,,,3,R,ugm-3,34,R,ugm-3,38,R,ugm-3,,,,3,R,ugm-3,,,
15-01-2009,05:00,,,,5,R,ugm-3,25,R,ugm-3,32,R,ugm-3,,,,3,R,ugm-3,,,
15-01-2009,06:00,,,,6,R,ugm-3,17,R,ugm-3,27,R,ugm-3,,,,3,R,ugm-3,,,
15-01-2009,07:00,,,,6,R,ugm-3,17,R,ugm-3,27,R,ugm-3,,,,3,R,ugm-3,,,
15-01-2009,08:00,,,,11,R,ugm-3,21,R,ugm-3,38,R,ugm-3,,,,5,R,ugm-3,,,